| time (UTC) | temp F | wind direction | speed MPH | gust MPH | rain 1hr in | rain 24hr in | rain mn in | humidity % | barometer mb |
| 20260507194558 | 70 | 236 | 4.0 | 18.0 | 0.00 | 0.00 | 0.00 | 32 | 1015.2 |
| 20260507193055 | 69 | 257 | 6.0 | 12.0 | 0.00 | 0.00 | 0.00 | 32 | 1015.6 |
| 20260507191553 | 69 | 325 | 7.0 | 14.0 | 0.00 | 0.00 | 0.00 | 34 | 1015.8 |
| 20260507190052 | 68 | 274 | 5.0 | 11.0 | 0.00 | 0.00 | 0.00 | 38 | 1016.2 |
| 20260507184544 | 67 | 235 | 4.0 | 13.0 | 0.00 | 0.00 | 0.00 | 40 | 1016.5 |
| 20260507183042 | 66 | 241 | 7.0 | 13.0 | 0.00 | 0.00 | 0.00 | 41 | 1017.0 |
| 20260507181539 | 66 | 252 | 4.0 | 13.0 | 0.00 | 0.00 | 0.00 | 42 | 1017.3 |
| 20260507180036 | 65 | 212 | 5.0 | 12.0 | 0.00 | 0.00 | 0.00 | 45 | 1017.6 |
| 20260507174544 | 64 | 204 | 5.0 | 11.0 | 0.00 | 0.00 | 0.00 | 46 | 1017.9 |
| 20260507173029 | 62 | 245 | 7.0 | 11.0 | 0.00 | 0.00 | 0.00 | 49 | 1018.4 |
| 20260507171525 | 61 | 172 | 5.0 | 13.0 | 0.00 | 0.00 | 0.00 | 51 | 1018.6 |
| 20260507170022 | 60 | 194 | 6.0 | 13.0 | 0.00 | 0.00 | 0.00 | 53 | 1018.9 |
| 20260507164519 | 59 | 197 | 8.0 | 11.0 | 0.00 | 0.00 | 0.00 | 52 | 1019.1 |
| 20260507163016 | 58 | 222 | 6.0 | 12.0 | 0.00 | 0.00 | 0.00 | 55 | 1019.4 |
| 20260507161512 | 57 | 214 | 5.0 | 13.0 | 0.00 | 0.00 | 0.00 | 57 | 1019.4 |
| 20260507160010 | 55 | 229 | 6.0 | 12.0 | 0.00 | 0.00 | 0.00 | 60 | 1019.6 |
| 20260507154507 | 54 | 199 | 5.0 | 11.0 | 0.00 | 0.00 | 0.00 | 63 | 1019.7 |
| 20260507153003 | 52 | 202 | 6.0 | 11.0 | 0.00 | 0.00 | 0.00 | 67 | 1019.9 |
| 20260507151601 | 50 | 239 | 4.0 | 9.0 | 0.00 | 0.00 | 0.00 | 74 | 1020.0 |
| 20260507150056 | 48 | 207 | 4.0 | 10.0 | 0.00 | 0.00 | 0.00 | 80 | 1020.2 |
| 20260507144552 | 46 | 223 | 4.0 | 10.0 | 0.00 | 0.00 | 0.00 | 84 | 1020.3 |
| 20260507143054 | 44 | 198 | 3.0 | 7.0 | 0.00 | 0.00 | 0.00 | 87 | 1020.5 |
| 20260507141549 | 43 | 241 | 4.0 | 8.0 | 0.00 | 0.00 | 0.00 | 91 | 1020.7 |
| 20260507140049 | 41 | 260 | 3.0 | 8.0 | 0.00 | 0.00 | 0.00 | 92 | 1020.8 |
| 20260507134552 | 41 | 214 | 3.0 | 9.0 | 0.00 | 0.00 | 0.00 | 92 | 1020.9 |
| 20260507133051 | 40 | 258 | 2.0 | 7.0 | 0.00 | 0.00 | 0.00 | 93 | 1020.9 |
| 20260507131546 | 40 | 235 | 3.0 | 8.0 | 0.00 | 0.00 | 0.00 | 93 | 1020.9 |
| 20260507130058 | 40 | 240 | 2.0 | 8.0 | 0.00 | 0.00 | 0.00 | 93 | 1020.8 |
| 20260507124602 | 40 | 240 | 1.0 | 5.0 | 0.00 | 0.00 | 0.00 | 93 | 1020.6 |
| 20260507123102 | 40 | 246 | 2.0 | 5.0 | 0.00 | 0.00 | 0.00 | 93 | 1020.4 |
| 20260507121555 | 39 | 248 | 2.0 | 6.0 | 0.00 | 0.00 | 0.00 | 93 | 1020.4 |
| 20260507120042 | 39 | 279 | 1.0 | 5.0 | 0.00 | 0.00 | 0.00 | 93 | 1020.3 |
| 20260507114540 | 39 | 271 | 1.0 | 5.0 | 0.00 | 0.00 | 0.00 | 92 | 1020.1 |
| 20260507113040 | 39 | 285 | 1.0 | 4.0 | 0.00 | 0.00 | 0.00 | 92 | 1020.1 |
| 20260507111537 | 40 | 263 | 1.0 | 4.0 | 0.00 | 0.00 | 0.00 | 92 | 1020.1 |
| 20260507110035 | 40 | 261 | 0.0 | 3.0 | 0.00 | 0.00 | 0.00 | 92 | 1020.2 |
| 20260507104536 | 40 | 291 | 0.0 | 3.0 | 0.00 | 0.00 | 0.00 | 92 | 1020.2 |
| 20260507103033 | 39 | 285 | 0.0 | 2.0 | 0.00 | 0.00 | 0.00 | 91 | 1020.3 |
| 20260507101539 | 39 | 271 | 0.0 | 0.0 | 0.00 | 0.00 | 0.00 | 90 | 1020.4 |
| 20260507100045 | 40 | 271 | 0.0 | 0.0 | 0.00 | 0.00 | 0.00 | 90 | 1020.4 |
| 20260507094531 | 40 | 296 | 0.0 | 1.0 | 0.00 | 0.00 | 0.00 | 90 | 1020.3 |
| 20260507093030 | 40 | 297 | 0.0 | 3.0 | 0.00 | 0.00 | 0.00 | 90 | 1020.4 |
| 20260507091529 | 39 | 58 | 0.0 | 0.0 | 0.00 | 0.00 | 0.00 | 88 | 1020.0 |
| 20260507090024 | 40 | 58 | 0.0 | 0.0 | 0.00 | 0.00 | 0.00 | 87 | 1019.9 |
| 20260507084522 | 40 | 58 | 0.0 | 0.0 | 0.00 | 0.00 | 0.00 | 84 | 1019.9 |
| 20260507083019 | 42 | 58 | 0.0 | 0.0 | 0.00 | 0.00 | 0.00 | 83 | 1019.9 |
| 20260507081517 | 43 | 58 | 0.0 | 0.0 | 0.00 | 0.00 | 0.00 | 83 | 1020.1 |
| 20260507080014 | 43 | 71 | 0.0 | 0.0 | 0.00 | 0.00 | 0.00 | 83 | 1019.9 |
| 20260507074512 | 43 | 69 | 1.0 | 4.0 | 0.00 | 0.00 | 0.00 | 82 | 1020.0 |
| 20260507073009 | 44 | 75 | 0.0 | 0.0 | 0.00 | 0.00 | 0.00 | 81 | 1020.4 |
| 20260507071504 | 44 | 283 | 0.0 | 4.0 | 0.00 | 0.00 | 0.00 | 78 | 1021.1 |
| 20260507070000 | 45 | 347 | 1.0 | 6.0 | 0.00 | 0.00 | 0.00 | 72 | 1021.2 |
| 20260507064559 | 46 | 285 | 0.0 | 5.0 | 0.00 | 0.00 | 0.00 | 69 | 1021.5 |
| 20260507063058 | 46 | 18 | 0.0 | 5.0 | 0.00 | 0.00 | 0.00 | 67 | 1021.2 |
| 20260507061554 | 46 | 345 | 1.0 | 5.0 | 0.00 | 0.00 | 0.00 | 67 | 1021.1 |
| 20260507060058 | 47 | 15 | 0.0 | 6.0 | 0.00 | 0.00 | 0.00 | 66 | 1020.5 |
| 20260507054548 | 47 | 36 | 2.0 | 10.0 | 0.00 | 0.00 | 0.00 | 65 | 1020.2 |
| 20260507053046 | 47 | 5 | 2.0 | 8.0 | 0.00 | 0.00 | 0.00 | 64 | 1020.3 |
| 20260507051544 | 47 | 31 | 1.0 | 8.0 | 0.00 | 0.00 | 0.00 | 64 | 1020.0 |
| 20260507050042 | 47 | 342 | 2.0 | 9.0 | 0.00 | 0.00 | 0.00 | 64 | 1019.9 |
| 20260507044542 | 47 | 344 | 4.0 | 13.0 | 0.00 | 0.00 | 0.00 | 63 | 1020.3 |
| 20260507043042 | 48 | 259 | 3.0 | 8.0 | 0.00 | 0.00 | 0.00 | 61 | 1020.2 |
| 20260507041543 | 48 | 9 | 4.0 | 12.0 | 0.00 | 0.00 | 0.00 | 60 | 1019.7 |
| 20260507040034 | 49 | 81 | 2.0 | 13.0 | 0.00 | 0.00 | 0.00 | 59 | 1019.4 |
| 20260507034534 | 49 | 316 | 4.0 | 10.0 | 0.00 | 0.00 | 0.00 | 58 | 1019.4 |
| 20260507033035 | 50 | 207 | 4.0 | 14.0 | 0.00 | 0.00 | 0.00 | 58 | 1019.2 |
| 20260507031531 | 51 | 41 | 3.0 | 11.0 | 0.00 | 0.00 | 0.00 | 58 | 1019.0 |
| 20260507030028 | 52 | 343 | 4.0 | 14.0 | 0.00 | 0.00 | 0.00 | 55 | 1018.5 |
| 20260507024525 | 53 | 288 | 4.0 | 11.0 | 0.00 | 0.00 | 0.00 | 53 | 1018.3 |
| 20260507023023 | 54 | 4 | 4.0 | 14.0 | 0.00 | 0.00 | 0.00 | 52 | 1017.8 |
| 20260507021519 | 55 | 339 | 3.0 | 9.0 | 0.00 | 0.00 | 0.00 | 53 | 1017.1 |
| 20260507020018 | 55 | 329 | 2.0 | 9.0 | 0.00 | 0.00 | 0.00 | 52 | 1017.0 |
| 20260507014517 | 55 | 29 | 4.0 | 10.0 | 0.00 | 0.00 | 0.00 | 52 | 1016.1 |
| 20260507013019 | 55 | 37 | 3.0 | 9.0 | 0.00 | 0.00 | 0.00 | 51 | 1015.5 |
| 20260507011517 | 56 | 19 | 7.0 | 13.0 | 0.00 | 0.00 | 0.00 | 50 | 1014.8 |
| 20260507010010 | 57 | 47 | 8.0 | 14.0 | 0.00 | 0.00 | 0.00 | 48 | 1014.5 |
| 20260507004523 | 58 | 45 | 6.0 | 16.0 | 0.00 | 0.00 | 0.00 | 48 | 1014.1 |
| 20260507003009 | 58 | 64 | 6.0 | 11.0 | 0.00 | 0.00 | 0.00 | 48 | 1014.1 |
| 20260507001507 | 58 | 39 | 7.0 | 16.0 | 0.00 | 0.00 | 0.00 | 47 | 1013.6 |
| 20260507000011 | 58 | 61 | 9.0 | 14.0 | 0.00 | 0.00 | 0.00 | 48 | 1013.3 |
| 20260506234508 | 58 | 49 | 9.0 | 17.0 | 0.00 | 0.00 | 0.00 | 48 | 1013.2 |
| 20260506233006 | 59 | 20 | 8.0 | 17.0 | 0.00 | 0.00 | 0.00 | 47 | 1013.3 |
| 20260506231516 | 58 | 48 | 7.0 | 19.0 | 0.00 | 0.00 | 0.00 | 48 | 1013.3 |
| 20260506230004 | 58 | 29 | 7.0 | 16.0 | 0.00 | 0.00 | 0.00 | 49 | 1013.2 |
| 20260506224504 | 58 | 39 | 8.0 | 18.0 | 0.00 | 0.00 | 0.00 | 48 | 1013.2 |
| 20260506223005 | 58 | 45 | 11.0 | 16.0 | 0.00 | 0.00 | 0.00 | 48 | 1013.5 |
| 20260506221503 | 58 | 41 | 10.0 | 14.0 | 0.00 | 0.00 | 0.00 | 48 | 1013.5 |
| 20260506220002 | 58 | 56 | 9.0 | 23.0 | 0.00 | 0.00 | 0.00 | 48 | 1013.6 |
| 20260506214503 | 59 | 38 | 9.0 | 18.0 | 0.00 | 0.00 | 0.00 | 48 | 1013.6 |
| 20260506213140 | 59 | 155 | 8.0 | 14.0 | 0.00 | 0.00 | 0.00 | 47 | 1013.6 |
| 20260506211627 | 60 | 126 | 8.0 | 13.0 | 0.00 | 0.00 | 0.00 | 47 | 1013.7 |
| 20260506204600 | 61 | 109 | 6.0 | 13.0 | 0.00 | 0.00 | 0.00 | 46 | 1013.7 |
| 20260506203102 | 59 | 124 | 6.0 | 13.0 | 0.00 | 0.00 | 0.00 | 47 | 1013.9 |
| 20260506201604 | 59 | 108 | 7.0 | 15.0 | 0.00 | 0.00 | 0.00 | 46 | 1013.7 |
| 20260506200100 | 59 | 158 | 6.0 | 18.0 | 0.00 | 0.00 | 0.00 | 46 | 1013.8 |